Regional Weather Roundup
Issued by NWS Cleveland, OH

Home | Current Version | Previous Version | Graphics & Text | Print | Product List | Glossary On
Versions: 1 2 3 4 5 6 7 8 9 10 11 12 13 14 15 16 17 18 19 20 21 22 23 24 25 26 27 28 29 30 31 32 33 34 35 36 37 38 39 40 41 42 43 44 45 46 47 48 49 50
000
ASUS41 KCLE 272310
RWRCLE
OHIO REGIONAL WEATHER ROUNDUP
NATIONAL WEATHER SERVICE CLEVELAND, OH
700 PM EDT WED MAY 27 2015

NOTE: "FAIR" INDICATES FEW OR NO CLOUDS BELOW 12,000 FEET WITH NO
SIGNIFICANT WEATHER AND/OR OBSTRUCTIONS TO VISIBILITY.

OHZ001>008-015>018-024>027-034-035-043-044-280000-
   NORTHWEST OHIO

CITY           SKY/WX    TMP DP  RH WIND       PRES   REMARKS
DEFIANCE       CLOUDY    72  63  73 NW3       30.01S
FINDLAY        CLOUDY    68  63  84 NW7       30.02F
TOLEDO EXPRESS PTSUNNY   69  64  84 SW5       30.01S
TOLEDO EXEC    CLOUDY    69  62  78 SW7       30.02S
LIMA           CLOUDY    71  64  78 W6        30.03S
$$

OHZ009>014-019>023-028>033-038-089-280000-
   NORTHEAST OHIO

CITY           SKY/WX    TMP DP  RH WIND       PRES   REMARKS
CLE-HOPKINS    PTSUNNY   67  62  84 S3        30.06F
CLE-LAKEFRONT  CLOUDY    64  61  90 S7        30.04F
CUY CO. ARPT   LGT RAIN  64  61  88 W9        30.07R
LORAIN-ELYRIA  LGT RAIN  68  59  73 VRB7      30.05F
ASHTABULA      HVY RAIN  63  60  90 W17G29    30.10R VSB 1/2
AKRON-CANTON   MOSUNNY   80  60  50 SW14G24   30.06S
WOOSTER        MOSUNNY   78  61  55 SW17      30.05F
MANSFIELD      PTSUNNY   79  60  52 S18G26    30.04S
YOUNGSTOWN     PTSUNNY   78  59  51 SW14      30.06S
$$

OHZ042-051>053-060>062-070>072-077>081-280000-
  SOUTHWEST OHIO

CITY           SKY/WX    TMP DP  RH WIND       PRES   REMARKS
CINC-COVINGTON CLOUDY    76  60  57 SW14G25   30.11R
CINC-LUNKEN    CLOUDY    76  64  66 SW13      30.09R
HAMILTON       CLOUDY    79  61  53 SW10G23   30.08R
DAYTON         CLOUDY    80  63  55 SW17      30.06S
WRIGHT-PAT AFB CLOUDY    80  62  54 SW14      30.05S
DAYTON GENERAL CLOUDY    79  62  56 S15       30.07R
WILMINGTON     CLOUDY    78  62  57 SW17G23   30.08R
$$

OHZ036-037-039>041-045>050-054>059-063>069-073>076-082>088-280000-
  CENTRAL AND SOUTHEAST OHIO

CITY           SKY/WX    TMP DP  RH WIND       PRES   REMARKS
COLUMBUS       CLOUDY    80  60  50 SW15G23   30.06R
OSU AIRPORT    PTSUNNY   81  60  48 S17       30.05S
BOLTON FIELD   PTSUNNY   81  63  54 S15G21    30.06S
RICKENBACK AFB PTSUNNY   80  61  52 S20       30.06S
NEWARK         MOSUNNY   79  63  57 SW12      30.06S
MARION         MOSUNNY   79  59  50 SW16G25   30.03S
LANCASTER      SUNNY     80  62  54 S12       30.08S
ZANESVILLE     NOT AVBL
NEW PHILLY     MOSUNNY   82  62  50 VRB6      30.07F
$$


USA.gov is the U.S. government's official web portal to all federal, state and local government web resources and services.